Location: Quedlinburg
(51.7921°N, 11.1414°E)
Time: 23:40:48
(UTC+01:00)

SEEDS - Visible Passes

Search period start: 14 March 2026 00:00
Search period end: 24 March 2026 00:00
Orbit: 477 x 478 km, 97.8° (Epoch: 14 March)

Date Brightness Start Highest point End Pass type
(mag) Time Alt. Az. Time Alt. Az. Time Alt. Az.
14 Mar ? 05:41:02 10° NNE 05:44:36 69° ESE 05:48:09 10° S visible
15 Mar ? 05:14:48 10° NNE 05:18:05 34° E 05:21:21 10° SSE visible
16 Mar ? 04:48:53 10° NE 04:51:26 18° E 04:53:57 10° SE visible
18 Mar ? 05:28:23 10° NNE 05:31:51 47° E 05:35:17 10° S visible
19 Mar ? 05:02:08 10° NE 05:05:07 24° E 05:08:04 10° SSE visible
20 Mar ? 04:36:28 10° ENE 04:38:14 13° E 04:40:00 10° ESE visible
21 Mar ? 05:41:38 10° NNE 05:45:12 67° ESE 05:48:44 10° S visible
22 Mar ? 05:15:08 10° NNE 05:18:23 32° E 05:21:36 10° SSE visible
23 Mar ? 04:48:58 10° NE 04:51:26 17° E 04:53:52 10° SE visible
